period_start,C,m1,H,J0,J1,J2,J3,J4,J5,JA,JB,JC,JD,JJ,JK,JN,#
2015-03-25 00:04:27,0.22,0.76,0.00,23.92,26.99,29.83,4.63,26.84,983.79,2036.01,3136.54,3100.65,3357.87,349.80,335.22,9.81,0000 0000 0000 0000 000000
2015-03-25 00:09:28,0.18,0.76,0.00,23.76,27.00,29.95,4.65,26.90,983.47,2036.00,3134.27,3098.93,3356.02,350.03,335.59,9.84,0000 0000 0000 0000 000000
2015-03-25 00:14:29,0.18,0.77,0.00,23.70,27.02,29.89,4.62,26.85,983.42,2036.01,3131.83,3097.33,3354.28,350.05,335.64,9.87,0000 0000 0000 0000 000000
2015-03-25 00:19:31,0.20,0.77,0.00,23.55,27.01,29.73,4.67,26.86,983.40,2036.01,3129.46,3095.73,3352.59,349.94,335.69,9.90,0000 0000 0000 0000 000000
2015-03-25 00:24:32,0.17,0.78,0.00,23.47,27.00,29.53,4.63,26.86,983.36,2036.03,3127.14,3094.27,3350.89,350.26,336.05,9.93,0000 0000 0000 0000 000000
2015-03-25 00:29:33,0.22,0.79,0.00,23.45,26.98,29.43,4.51,26.70,983.39,2036.12,3124.73,3092.67,3349.23,349.66,335.70,9.96,0000 0000 0000 0000 000000
2015-03-25 00:34:34,0.21,0.79,0.00,23.67,26.96,29.30,4.63,26.86,983.10,2036.35,3122.44,3091.10,3347.52,349.99,335.41,9.99,0000 0000 0000 0000 000000
2015-03-25 00:39:35,0.24,0.80,0.00,23.43,26.95,29.41,4.61,26.88,982.93,2036.63,3120.22,3089.59,3345.83,349.62,335.19,10.02,0000 0000 0000 0000 000000
2015-03-25 00:44:37,0.18,0.80,0.00,23.27,26.94,29.50,4.56,26.90,982.92,2036.64,3117.79,3087.87,3344.08,349.99,335.85,10.05,0000 0000 0000 0000 000000
2015-03-25 00:49:38,0.18,0.81,0.00,23.29,26.94,29.53,4.62,27.13,982.85,2036.72,3115.38,3086.21,3342.23,349.85,335.63,10.08,0000 0000 0000 0000 000000
2015-03-25 00:54:39,0.20,0.82,0.00,23.66,26.95,29.53,4.52,27.13,982.77,2036.66,3113.01,3084.57,3340.42,349.34,334.90,10.11,0000 0000 0000 0000 000000
2015-03-25 00:59:41,0.15,0.82,0.00,24.48,26.96,29.47,4.59,27.07,982.65,2036.44,3110.56,3082.79,3338.58,349.74,334.02,10.14,0000 0000 0000 0000 000000
2015-03-25 01:04:42,0.18,0.83,0.00,24.32,26.99,29.58,4.60,27.04,982.54,2036.06,3107.98,3080.96,3336.58,350.42,334.94,10.16,0000 0000 0000 0000 000000
2015-03-25 01:09:44,0.18,0.83,0.00,24.01,27.02,29.93,4.57,26.88,982.56,2036.04,3105.60,3079.36,3334.81,349.80,334.71,10.19,0000 0000 0000 0000 000000
2015-03-25 01:14:45,0.19,0.84,0.00,23.86,27.04,30.05,4.55,26.92,982.87,2036.03,3103.26,3077.72,3333.05,349.31,334.68,10.22,0000 0000 0000 0000 000000
2015-03-25 01:19:46,0.17,0.84,0.00,23.80,27.05,29.94,4.56,26.87,982.92,2036.01,3100.95,3076.24,3331.41,349.64,334.98,10.25,0000 0000 0000 0000 000000
2015-03-25 01:24:48,0.20,0.85,0.00,23.71,27.05,29.86,4.60,26.79,982.91,2036.01,3098.68,3074.64,3329.66,349.92,335.17,10.28,0000 0000 0000 0000 000000
2015-03-25 01:29:49,0.17,0.85,0.00,23.65,27.03,29.73,4.55,26.91,982.65,2036.02,3096.38,3073.09,3327.92,349.61,334.99,10.31,0000 0000 0000 0000 000000
2015-03-25 01:34:51,0.19,0.86,0.00,23.61,27.02,29.62,4.66,26.84,982.45,2036.02,3094.02,3071.61,3326.40,350.13,335.56,10.34,0000 0000 0000 0000 000000
2015-03-25 01:39:52,0.17,0.86,0.00,23.54,27.00,29.51,4.65,26.92,982.46,2036.04,3091.75,3070.17,3324.74,350.64,336.02,10.37,0000 0000 0000 0000 000000
2015-03-25 01:44:53,0.20,0.87,0.00,23.55,26.97,29.40,4.57,26.93,982.45,2036.09,3089.44,3068.61,3323.08,349.71,335.19,10.40,0000 0000 0000 0000 000000
2015-03-25 01:49:55,0.24,0.88,0.00,23.52,26.95,29.42,4.65,26.75,982.47,2036.38,3087.22,3067.17,3321.52,350.15,335.55,10.43,0000 0000 0000 0000 000000
2015-03-25 01:54:56,0.24,0.88,0.00,23.47,26.92,29.39,4.70,26.88,982.45,2036.89,3085.01,3065.69,3319.90,350.13,335.44,10.46,0000 0000 0000 0000 000000
2015-03-25 01:59:57,0.17,0.89,0.00,23.51,26.90,29.35,4.55,26.85,982.79,2036.95,3082.70,3064.23,3318.34,349.89,335.31,10.49,0000 0000 0000 0000 000000
2015-03-25 02:04:59,0.21,0.90,0.00,23.47,26.87,29.33,4.62,26.93,982.83,2036.99,3080.27,3062.67,3316.64,350.03,335.67,10.52,0000 0000 0000 0000 000000
2015-03-25 02:10:00,0.17,0.90,0.00,23.42,26.84,29.29,4.68,26.77,982.29,2036.99,3078.07,3061.16,3315.00,349.83,335.33,10.55,0000 0000 0000 0000 000000
2015-03-25 02:15:02,0.18,0.91,0.00,23.44,26.81,29.25,4.57,26.81,981.95,2036.99,3075.79,3059.67,3313.42,349.96,335.24,10.57,0000 0000 0000 0000 000000
2015-03-25 02:20:03,0.19,0.91,0.00,23.47,26.79,29.23,4.63,26.85,982.23,2037.00,3073.40,3058.11,3311.71,350.20,335.59,10.60,0000 0000 0000 0000 000000
2015-03-25 02:25:04,0.19,0.92,0.00,23.43,26.76,29.33,4.62,26.86,982.81,2037.02,3071.08,3056.52,3309.98,349.87,335.52,10.63,0000 0000 0000 0000 000000
2015-03-25 02:30:05,0.17,0.92,0.00,23.43,26.74,29.28,4.61,26.75,982.89,2037.06,3068.88,3055.12,3308.43,349.92,335.57,10.66,0000 0000 0000 0000 000000
2015-03-25 02:35:06,0.20,0.93,0.00,23.42,26.71,29.28,4.62,26.78,982.71,2037.12,3066.59,3053.58,3306.81,349.79,335.45,10.69,0000 0000 0000 0000 000000
2015-03-25 02:40:08,0.20,0.94,0.00,23.41,26.69,29.27,4.59,26.73,982.45,2037.33,3064.38,3052.12,3305.23,350.42,335.81,10.72,0000 0000 0000 0000 000000
2015-03-25 02:45:09,0.23,0.94,0.00,23.47,26.67,29.22,4.56,26.78,982.46,2037.73,3062.19,3050.69,3303.69,349.52,335.02,10.75,0000 0000 0000 0000 000000
2015-03-25 02:50:10,0.20,0.95,0.00,23.75,26.65,29.14,4.55,26.80,982.44,2037.91,3060.05,3049.29,3302.10,349.40,334.63,10.78,0000 0000 0000 0000 000000
2015-03-25 02:55:11,0.19,0.95,0.00,23.37,26.64,29.12,4.58,26.89,982.44,2037.96,3057.90,3047.74,3300.47,349.67,335.34,10.81,0000 0000 0000 0000 000000
2015-03-25 03:00:12,0.19,0.96,0.00,23.10,26.63,29.18,4.64,27.01,982.44,2037.98,3055.61,3046.16,3298.80,349.87,335.88,10.84,0000 0000 0000 0000 000000
2015-03-25 03:05:13,0.19,0.97,0.00,23.22,26.65,29.23,4.60,27.14,982.42,2037.91,3053.14,3044.48,3296.92,350.12,335.86,10.87,0000 0000 0000 0000 000000
2015-03-25 03:10:15,0.18,0.97,0.00,23.92,26.66,29.17,4.54,27.02,982.28,2037.82,3050.86,3042.81,3295.20,350.11,335.01,10.90,0000 0000 0000 0000 000000
2015-03-25 03:15:16,0.18,0.98,0.00,24.39,26.69,29.21,4.58,26.95,982.01,2037.65,3048.45,3041.12,3293.27,350.09,334.56,10.93,0000 0000 0000 0000 000000
2015-03-25 03:20:18,0.14,0.98,0.00,24.22,26.73,29.32,4.52,27.03,981.96,2037.36,3045.93,3039.47,3291.40,350.08,334.45,10.96,0000 0000 0000 0000 000000
2015-03-25 03:25:19,0.18,0.99,0.00,24.07,26.76,29.71,4.59,26.90,981.96,2037.06,3043.37,3037.61,3289.50,350.45,335.00,10.98,0000 0000 0000 0000 000000
2015-03-25 03:30:20,0.19,0.99,0.00,23.92,26.79,29.83,4.66,26.92,981.95,2037.02,3041.00,3035.90,3287.67,350.01,334.82,11.01,0000 0000 0000 0000 000000
2015-03-25 03:35:22,0.20,1.00,0.00,23.89,26.81,29.81,4.59,26.86,981.95,2037.01,3038.49,3034.28,3285.84,350.13,334.89,11.04,0000 0000 0000 0000 000000
2015-03-25 03:40:23,0.20,1.00,0.00,23.85,26.82,29.78,4.56,26.85,981.90,2037.00,3036.07,3032.68,3284.13,350.05,335.00,11.07,0000 0000 0000 0000 000000
2015-03-25 03:45:24,0.18,1.01,0.00,23.80,26.82,29.72,4.54,26.82,981.53,2037.01,3033.71,3031.12,3282.41,349.61,334.38,11.10,0000 0000 0000 0000 000000
2015-03-25 03:50:25,0.18,1.02,0.00,23.71,26.81,29.61,4.62,26.94,981.52,2037.00,3031.51,3029.63,3280.80,350.13,335.12,11.13,0000 0000 0000 0000 000000
2015-03-25 03:55:26,0.17,1.02,0.00,23.66,26.80,29.61,4.66,26.88,981.48,2037.01,3029.35,3028.22,3279.31,350.98,335.88,11.16,0000 0000 0000 0000 000000
2015-03-25 04:00:28,0.20,1.03,0.00,23.65,26.79,29.53,4.64,26.91,981.46,2037.01,3027.09,3026.69,3277.64,349.87,334.81,11.19,0000 0000 0000 0000 000000
2015-03-25 04:05:29,0.17,1.03,0.00,23.62,26.77,29.51,4.62,26.91,981.46,2037.01,3024.88,3025.17,3275.96,350.03,334.90,11.22,0000 0000 0000 0000 000000
2015-03-25 04:10:30,0.18,1.04,0.00,23.62,26.76,29.49,4.70,27.01,981.12,2037.02,3022.80,3023.72,3274.50,350.63,335.28,11.25,0000 0000 0000 0000 000000
2015-03-25 04:15:31,0.15,1.04,0.00,23.63,26.75,29.44,4.65,26.96,980.97,2037.02,3020.83,3022.46,3273.01,349.85,334.58,11.28,0000 0000 0000 0000 000000
2015-03-25 04:20:32,0.16,1.05,0.00,23.59,26.72,29.43,4.52,27.09,980.92,2037.07,3018.93,3021.24,3271.70,350.01,334.91,11.31,0000 0000 0000 0000 000000
2015-03-25 04:25:34,0.14,1.05,0.00,23.56,26.71,29.40,4.57,27.01,980.67,2037.04,3016.99,3019.93,3270.36,350.06,334.81,11.34,0000 0000 0000 0000 000000
2015-03-25 04:30:35,0.18,1.06,0.00,23.56,26.69,29.38,4.53,26.87,980.52,2037.19,3015.19,3018.78,3269.08,349.74,334.55,11.37,0000 0000 0000 0000 000000
2015-03-25 04:35:36,0.21,1.06,0.00,23.56,26.67,29.34,4.49,26.92,980.50,2037.64,3013.46,3017.65,3267.81,349.27,333.98,11.39,0000 0000 0000 0000 000000
2015-03-25 04:40:37,0.17,1.07,0.00,23.57,26.66,29.35,4.56,26.88,980.48,2037.86,3011.73,3016.57,3266.64,349.67,334.35,11.42,0000 0000 0000 0000 000000
2015-03-25 04:45:38,0.14,1.07,0.00,23.59,26.64,29.36,4.62,26.96,980.42,2037.93,3010.09,3015.49,3265.47,350.20,334.83,11.45,0000 0000 0000 0000 000000
2015-03-25 04:50:39,0.14,1.08,0.00,23.56,26.62,29.31,4.65,27.01,980.05,2037.94,3008.50,3014.34,3264.27,350.22,334.75,11.48,0000 0000 0000 0000 000000
2015-03-25 04:55:41,0.13,1.08,0.00,23.55,26.61,29.29,4.58,27.03,980.00,2037.97,3006.87,3013.29,3263.20,349.79,334.34,11.51,0000 0000 0000 0000 000000
2015-03-25 05:00:42,0.12,1.08,0.00,23.56,26.60,29.27,4.59,27.10,979.95,2037.99,3005.23,3012.20,3262.14,350.26,334.42,11.54,0000 0000 0000 0000 000000
2015-03-25 05:05:43,0.13,1.09,0.00,23.54,26.57,29.28,4.61,27.15,979.74,2037.98,3003.64,3011.17,3261.05,350.18,334.64,11.57,0000 0000 0000 0000 000000
2015-03-25 05:10:45,0.12,1.09,0.00,23.55,26.57,29.26,4.56,27.00,979.65,2037.99,3002.14,3010.19,3259.97,349.42,333.95,11.60,0000 0000 0000 0000 000000
2015-03-25 05:15:46,0.13,1.10,0.00,23.57,26.56,29.26,4.64,26.95,979.54,2037.99,3000.61,3009.15,3258.91,350.52,335.08,11.63,0000 0000 0000 0000 000000
2015-03-25 05:20:47,0.11,1.10,0.00,23.61,26.55,29.24,4.59,26.97,979.54,2037.99,2999.13,3008.28,3257.93,349.79,334.12,11.66,0000 0000 0000 0000 000000
2015-03-25 05:25:49,0.13,1.10,0.00,23.60,26.53,29.26,4.58,27.02,979.52,2038.01,2997.58,3007.42,3256.84,350.13,334.45,11.69,0000 0000 0000 0000 000000
2015-03-25 05:30:50,0.14,1.11,0.00,23.56,26.52,29.24,4.58,27.07,979.51,2038.02,2995.89,3006.34,3255.67,349.66,334.09,11.72,0000 0000 0000 0000 000000
2015-03-25 05:35:51,0.15,1.11,0.00,23.58,26.51,29.24,4.64,27.12,979.51,2038.07,2993.96,3005.13,3254.40,350.21,334.72,11.75,0000 0000 0000 0000 000000
2015-03-25 05:40:52,0.22,1.12,0.00,23.56,26.50,29.22,4.58,27.02,979.51,2038.18,2991.90,3003.73,3252.88,350.08,334.56,11.78,0000 0000 0000 0000 000000
2015-03-25 05:45:53,0.23,1.12,0.00,23.57,26.49,29.22,4.59,27.04,979.48,2038.43,2989.65,3002.28,3251.23,349.97,334.31,11.80,0000 0000 0000 0000 000000
2015-03-25 05:50:55,0.21,1.13,0.00,23.59,26.47,29.21,4.50,27.03,979.44,2038.77,2987.57,3000.89,3249.72,349.49,333.80,11.83,0000 0000 0000 0000 000000
2015-03-25 05:55:56,0.18,1.14,0.00,23.60,26.47,29.23,4.56,26.88,979.22,2038.88,2985.59,2999.61,3248.37,349.39,333.61,11.86,0000 0000 0000 0000 000000
2015-03-25 06:00:57,0.17,1.14,0.00,23.60,26.47,29.21,4.59,26.95,979.03,2038.88,2983.60,2998.22,3246.80,349.75,333.84,11.89,0000 0000 0000 0000 000000
2015-03-25 06:05:59,0.17,1.15,0.00,23.62,26.45,29.22,4.61,27.01,979.02,2038.90,2981.56,2996.82,3245.34,350.19,334.20,11.92,0000 0000 0000 0000 000000
2015-03-25 06:11:00,0.15,1.15,0.00,23.63,26.45,29.22,4.59,26.99,978.98,2038.96,2979.85,2995.65,3244.05,350.30,334.09,11.95,0000 0000 0000 0000 000000
2015-03-25 06:16:01,0.16,1.16,0.00,23.63,26.45,29.20,4.54,26.97,978.85,2038.96,2977.97,2994.35,3242.63,350.07,334.14,11.98,0000 0000 0000 0000 000000
2015-03-25 06:21:02,0.14,1.16,0.00,23.62,26.43,29.21,4.59,26.98,978.60,2038.98,2976.10,2993.02,3241.24,349.75,333.78,12.01,0000 0000 0000 0000 000000
2015-03-25 06:26:04,0.18,1.17,0.00,23.65,26.42,29.22,4.54,26.96,978.55,2038.98,2974.14,2991.75,3239.81,349.84,333.89,12.04,0000 0000 0000 0000 000000
2015-03-25 06:31:05,0.15,1.17,0.00,23.67,26.42,29.20,4.62,26.87,978.53,2038.98,2972.28,2990.50,3238.46,350.45,334.34,12.07,0000 0000 0000 0000 000000
2015-03-25 06:36:05,0.15,1.17,0.00,23.67,26.42,29.20,4.60,26.97,978.52,2038.98,2970.36,2989.15,3236.96,350.43,334.23,12.10,0000 0000 0000 0000 000000
2015-03-25 06:41:07,0.18,1.18,0.00,23.69,26.42,29.20,4.59,26.91,978.30,2038.99,2968.44,2987.82,3235.57,349.93,333.68,12.13,0000 0000 0000 0000 000000
2015-03-25 06:46:08,0.15,1.19,0.00,23.69,26.41,29.22,4.59,26.89,978.07,2038.99,2966.56,2986.51,3234.17,350.04,333.77,12.16,0000 0000 0000 0000 000000
2015-03-25 06:51:10,0.16,1.19,0.00,23.67,26.40,29.19,4.56,26.86,978.06,2038.99,2964.64,2985.28,3232.75,349.63,333.40,12.19,0000 0000 0000 0000 000000
2015-03-25 06:56:11,0.18,1.20,0.00,23.70,26.40,29.20,4.56,26.85,978.04,2038.99,2962.47,2983.87,3231.29,349.80,333.59,12.21,0000 0000 0000 0000 000000
2015-03-25 07:01:12,0.19,1.20,0.00,23.67,26.40,29.21,4.62,26.89,978.03,2038.99,2960.37,2982.44,3229.66,349.81,333.57,12.24,0000 0000 0000 0000 000000
2015-03-25 07:06:13,0.16,1.21,0.00,23.67,26.40,29.22,4.61,26.90,977.96,2038.99,2958.33,2981.01,3228.19,350.46,334.15,12.27,0000 0000 0000 0000 000000
2015-03-25 07:11:15,0.16,1.21,0.00,23.70,26.40,29.21,4.60,26.88,977.65,2038.99,2956.53,2979.78,3226.83,350.20,333.76,12.30,0000 0000 0000 0000 000000
2015-03-25 07:16:16,0.16,1.22,0.00,23.71,26.40,29.21,4.62,26.92,977.56,2038.99,2954.80,2978.50,3225.46,350.33,333.79,12.33,0000 0000 0000 0000 000000
2015-03-25 07:21:17,0.12,1.22,0.00,23.69,26.40,29.22,4.63,27.04,977.55,2038.99,2953.32,2977.44,3224.22,350.61,333.83,12.36,0000 0000 0000 0000 000000
2015-03-25 07:26:18,0.16,1.22,0.00,23.71,26.40,29.22,4.63,26.93,977.55,2038.99,2951.45,2976.15,3222.80,350.15,333.67,12.39,0000 0000 0000 0000 000000
2015-03-25 07:31:20,0.17,1.23,0.00,23.71,26.40,29.22,4.63,26.92,977.55,2038.98,2949.46,2974.79,3221.49,350.34,333.79,12.42,0000 0000 0000 0000 000000
2015-03-25 07:36:21,0.15,1.23,0.00,23.71,26.40,29.21,4.57,26.93,977.42,2038.99,2947.59,2973.57,3220.12,349.85,333.20,12.45,0000 0000 0000 0000 000000
2015-03-25 07:41:22,0.15,1.24,0.00,23.74,26.39,29.21,4.54,26.97,977.11,2038.97,2945.92,2972.42,3218.74,349.40,332.84,12.48,0000 0000 0000 0000 000000
2015-03-25 07:46:23,0.15,1.24,0.00,23.77,26.39,29.21,4.60,26.86,977.06,2038.99,2943.91,2971.11,3217.45,349.30,332.56,12.51,0000 0000 0000 0000 000000
2015-03-25 07:51:25,0.17,1.25,0.00,23.74,26.39,29.22,4.57,26.98,977.06,2038.99,2942.13,2969.86,3216.05,350.60,333.83,12.54,0000 0000 0000 0000 000000
2015-03-25 07:56:26,0.17,1.25,0.00,23.73,26.39,29.20,4.51,26.90,976.90,2038.99,2940.21,2968.54,3214.61,349.41,332.62,12.57,0000 0000 0000 0000 000000
2015-03-25 08:01:27,0.14,1.26,0.00,23.75,26.38,29.20,4.56,27.00,976.61,2038.99,2938.26,2967.21,3213.20,349.48,332.86,12.60,0000 0000 0000 0000 000000
2015-03-25 08:06:28,0.16,1.26,0.00,23.75,26.38,29.23,4.57,27.05,976.58,2038.98,2936.44,2965.92,3211.82,349.87,333.02,12.62,0000 0000 0000 0000 000000
2015-03-25 08:11:30,0.16,1.27,0.00,23.75,26.39,29.23,4.60,26.91,976.58,2038.98,2934.64,2964.77,3210.56,349.95,333.13,12.65,0000 0000 0000 0000 000000
2015-03-25 08:16:31,0.16,1.27,0.00,23.74,26.39,29.22,4.56,27.03,976.58,2038.98,2932.73,2963.51,3209.23,350.21,333.43,12.68,0000 0000 0000 0000 000000
2015-03-25 08:21:32,0.15,1.28,0.00,23.73,26.39,29.23,4.61,26.97,976.58,2038.99,2930.96,2962.22,3207.84,350.21,333.49,12.71,0000 0000 0000 0000 000000
2015-03-25 08:26:33,0.15,1.28,0.00,23.74,26.39,29.22,4.57,27.05,976.58,2038.99,2929.13,2960.98,3206.45,350.30,333.45,12.74,0000 0000 0000 0000 000000
2015-03-25 08:31:34,0.15,1.28,0.00,23.75,26.39,29.23,4.54,26.95,976.55,2038.98,2927.46,2959.79,3205.13,349.97,333.12,12.77,0000 0000 0000 0000 000000
2015-03-25 08:36:36,0.18,1.29,0.00,23.77,26.39,29.23,4.62,26.97,976.25,2038.99,2925.50,2958.53,3203.73,350.31,333.26,12.80,0000 0000 0000 0000 000000
2015-03-25 08:41:37,0.14,1.29,0.00,23.78,26.39,29.22,4.55,26.97,976.10,2038.96,2923.64,2957.26,3202.40,350.04,333.01,12.83,0000 0000 0000 0000 000000
2015-03-25 08:46:38,0.16,1.30,0.00,23.76,26.40,29.25,4.61,26.83,976.10,2038.98,2921.82,2955.96,3201.02,349.96,332.93,12.86,0000 0000 0000 0000 000000
2015-03-25 08:51:40,0.16,1.30,0.00,23.77,26.40,29.24,4.61,26.82,976.09,2038.98,2920.10,2954.81,3199.75,350.68,333.60,12.89,0000 0000 0000 0000 000000
2015-03-25 08:56:41,0.16,1.31,0.00,23.78,26.40,29.23,4.55,26.93,976.04,2038.99,2918.20,2953.56,3198.54,349.96,332.82,12.92,0000 0000 0000 0000 000000
2015-03-25 09:01:42,0.16,1.31,0.00,23.76,26.40,29.23,4.65,26.93,975.76,2038.98,2916.22,2952.26,3197.07,350.36,333.27,12.95,0000 0000 0000 0000 000000
2015-03-25 09:06:44,0.16,1.32,0.00,23.80,26.40,29.24,4.61,26.97,975.64,2038.98,2914.39,2950.92,3195.68,350.32,332.97,12.98,0000 0000 0000 0000 000000
2015-03-25 09:11:45,0.15,1.32,0.00,23.77,26.40,29.23,4.41,26.98,975.61,2038.97,2912.66,2949.78,3194.42,349.05,331.81,13.01,0000 0000 0000 0000 000000
2015-03-25 09:16:46,0.09,1.33,0.00,23.76,26.40,29.23,4.58,26.93,975.61,2038.95,2911.68,2948.88,3193.35,349.87,332.71,13.03,0000 0000 0000 0000 000000
2015-03-25 09:21:47,0.11,1.33,0.00,23.79,26.40,29.23,4.50,26.98,975.60,2038.92,2910.39,2947.88,3192.30,349.76,332.69,13.06,0000 0000 0000 0000 000000
2015-03-25 09:26:49,0.14,1.33,0.00,23.80,26.40,29.22,4.60,26.93,975.57,2038.91,2908.72,2946.80,3191.14,350.62,333.34,13.09,0000 0000 0000 0000 000000
2015-03-25 09:31:50,0.17,1.34,0.00,23.79,26.40,29.23,4.63,26.99,975.58,2038.91,2906.77,2945.62,3189.86,350.28,333.01,13.12,0000 0000 0000 0000 000000
2015-03-25 09:36:51,0.12,1.34,0.00,23.79,26.40,29.22,4.59,26.93,975.60,2038.94,2905.27,2944.63,3188.77,349.88,332.57,13.15,0000 0000 0000 0000 000000
2015-03-25 09:41:52,0.18,1.35,0.00,23.80,26.40,29.24,4.57,27.05,975.61,2038.96,2903.03,2943.39,3187.42,349.70,332.53,13.18,0000 0000 0000 0000 000000
2015-03-25 09:46:53,0.18,1.35,0.00,23.79,26.40,29.24,4.58,27.14,975.65,2038.98,2900.57,2942.03,3185.97,350.32,333.17,13.21,0000 0000 0000 0000 000000
2015-03-25 09:51:55,0.11,1.36,0.00,23.78,26.40,29.24,4.50,27.07,975.75,2038.98,2899.35,2941.05,3184.90,349.49,332.35,13.24,0000 0000 0000 0000 000000
2015-03-25 09:56:56,0.14,1.36,0.00,23.77,26.40,29.23,4.60,27.04,976.01,2038.99,2897.98,2940.03,3183.74,350.61,333.10,13.27,0000 0000 0000 0000 000000
2015-03-25 10:01:57,0.15,1.36,0.00,23.77,26.40,29.24,4.50,26.95,976.09,2038.98,2896.37,2938.85,3182.53,349.31,332.48,13.30,0000 0000 0000 0000 000000
2015-03-25 10:06:59,0.15,1.37,0.00,23.77,26.40,29.23,4.61,26.98,976.10,2038.97,2894.69,2937.72,3181.23,350.39,333.27,13.33,0000 0000 0000 0000 000000
2015-03-25 10:12:00,0.15,1.37,0.00,23.78,26.40,29.23,4.57,27.07,976.12,2038.98,2893.00,2936.62,3179.98,349.85,332.98,13.36,0000 0000 0000 0000 000000
2015-03-25 10:17:01,0.16,1.38,0.00,23.79,26.40,29.25,4.56,27.20,976.10,2038.98,2891.12,2935.39,3178.62,349.78,332.74,13.39,0000 0000 0000 0000 000000
2015-03-25 10:22:02,0.13,1.38,0.00,23.76,26.40,29.22,4.56,27.00,976.09,2038.98,2889.60,2934.38,3177.61,350.13,332.96,13.42,0000 0000 0000 0000 000000
2015-03-25 10:27:03,0.11,1.39,0.00,23.74,26.40,29.23,4.63,27.05,976.09,2038.99,2888.32,2933.43,3176.64,350.29,333.25,13.44,0000 0000 0000 0000 000000
2015-03-25 10:32:04,0.11,1.39,0.00,23.76,26.40,29.25,4.50,26.93,976.09,2038.99,2887.06,2932.61,3175.66,349.72,332.85,13.47,0000 0000 0000 0000 000000
2015-03-25 10:37:06,0.12,1.39,0.00,23.75,26.40,29.23,4.60,27.04,976.08,2038.99,2885.81,2931.63,3174.58,349.79,332.84,13.50,0000 0000 0000 0000 000000
2015-03-25 10:42:07,0.12,1.40,0.00,23.76,26.40,29.23,4.69,27.12,976.10,2038.98,2884.53,2930.66,3173.51,350.55,333.48,13.53,0000 0000 0000 0000 000000
2015-03-25 10:47:09,0.12,1.40,0.00,23.77,26.40,29.22,4.61,27.18,976.35,2038.96,2883.20,2929.57,3172.40,350.16,333.27,13.56,0000 0000 0000 0000 000000
2015-03-25 10:52:10,0.15,1.40,0.00,23.75,26.40,29.22,4.55,27.58,976.42,2038.85,2881.57,2928.30,3170.83,350.07,333.36,13.59,0000 0000 0000 0000 000000
2015-03-25 10:57:12,0.19,1.41,0.00,23.72,26.39,29.19,4.57,27.68,976.55,2038.79,2879.68,2926.65,3169.01,349.69,333.06,13.62,0000 0000 0000 0000 000000
2015-03-25 11:02:13,0.16,1.42,0.00,23.68,26.38,29.19,4.57,27.73,976.58,2038.76,2878.00,2925.04,3167.35,349.94,333.15,13.65,0000 0000 0000 0000 000000
2015-03-25 11:07:15,0.21,1.42,0.00,23.64,26.37,29.20,4.58,27.73,976.64,2038.83,2876.37,2923.40,3165.53,350.37,333.68,13.68,0000 0000 0000 0000 000000
2015-03-25 11:12:15,0.18,1.43,0.00,23.59,26.37,29.19,4.59,27.92,976.59,2038.79,2874.70,2921.89,3164.00,349.77,333.29,13.71,0000 0000 0000 0000 000000
2015-03-25 11:17:17,0.20,1.43,0.00,23.59,26.37,29.16,4.54,28.13,976.15,2038.81,2872.86,2920.18,3162.08,350.48,333.48,13.74,0000 0000 0000 0000 000000
2015-03-25 11:22:18,0.21,1.44,0.00,23.54,26.37,29.15,4.55,27.99,976.48,2038.81,2870.93,2918.09,3159.91,349.75,333.17,13.77,0000 0000 0000 0000 000000
2015-03-25 11:27:19,0.13,1.44,0.00,23.51,26.36,29.15,4.56,27.73,976.89,2038.61,2869.43,2916.72,3158.49,349.87,333.41,13.80,0000 0000 0000 0000 000000
2015-03-25 11:32:20,0.12,1.45,0.00,23.48,26.35,29.14,4.59,28.14,976.59,2038.57,2868.02,2915.59,3157.22,350.25,333.65,13.83,0000 0000 0000 0000 000000
2015-03-25 11:37:21,0.34,1.45,0.00,23.43,26.35,29.11,4.52,28.36,976.05,2038.51,2865.70,2912.93,3154.45,349.91,333.12,13.85,0000 0000 0000 0000 000000
2015-03-25 11:42:22,0.21,1.46,0.00,23.39,26.34,29.11,4.58,28.25,976.09,2038.27,2863.43,2910.03,3151.66,349.84,333.11,13.88,0000 0000 0000 0000 000000
2015-03-25 11:47:24,0.25,1.47,0.00,23.35,26.32,29.10,4.60,28.43,975.83,2038.48,2861.47,2908.22,3149.60,350.55,333.77,13.91,0000 0000 0000 0000 000000
2015-03-25 11:52:25,0.21,1.48,0.00,23.31,26.32,29.09,4.58,28.23,976.09,2038.47,2859.80,2906.54,3147.86,349.66,333.07,13.94,0000 0000 0000 0000 000000
2015-03-25 11:57:26,0.14,1.48,0.00,23.56,26.32,29.02,4.56,28.02,976.15,2038.63,2858.45,2905.36,3146.60,350.55,333.79,13.97,0000 0000 0000 0000 000000
2015-03-25 12:02:27,0.16,1.49,0.00,23.47,26.32,29.00,4.62,28.18,976.12,2038.65,2856.82,2904.05,3145.27,349.85,333.09,14.00,0000 0000 0000 0000 000000
2015-03-25 12:07:28,0.18,1.49,0.00,23.11,26.32,28.99,4.58,28.57,975.83,2038.54,2855.11,2902.64,3143.68,350.12,333.73,14.03,0000 0000 0000 0000 000000
2015-03-25 12:12:30,0.09,1.50,0.00,23.04,26.32,29.03,4.60,27.68,976.40,2038.24,2853.47,2901.15,3142.15,349.67,333.77,14.06,0000 0000 0000 0000 000000
2015-03-25 12:17:31,0.16,1.50,0.00,23.14,26.35,29.01,4.57,27.59,976.41,2038.07,2851.78,2899.87,3140.75,350.35,333.83,14.09,0000 0000 0000 0000 000000
2015-03-25 12:22:33,0.17,1.50,0.00,23.30,26.37,29.00,4.54,28.01,976.17,2038.04,2850.04,2898.52,3139.20,349.74,333.27,14.12,0000 0000 0000 0000 000000
2015-03-25 12:27:34,0.17,1.51,0.00,24.10,26.41,29.11,4.58,27.98,976.77,2038.02,2848.50,2896.88,3137.58,350.36,333.19,14.15,0000 0000 0000 0000 000000
2015-03-25 12:32:35,0.16,1.51,0.00,24.16,26.46,29.20,4.62,27.47,977.66,2038.00,2846.90,2895.59,3136.09,349.63,332.57,14.18,0000 0000 0000 0000 000000
2015-03-25 12:37:37,0.15,1.52,0.00,23.80,26.50,29.45,4.65,27.23,978.40,2037.98,2845.14,2894.25,3134.78,350.22,334.01,14.21,0000 0000 0000 0000 000000
2015-03-25 12:42:38,0.16,1.52,0.00,23.64,26.54,29.71,4.59,27.15,978.53,2037.95,2843.42,2892.91,3133.49,349.68,333.63,14.24,0000 0000 0000 0000 000000
2015-03-25 12:47:39,0.13,1.53,0.00,23.59,26.57,29.67,4.53,27.17,978.54,2037.90,2841.75,2891.78,3132.20,349.74,333.84,14.26,0000 0000 0000 0000 000000
2015-03-25 12:52:41,0.08,1.53,0.00,23.48,26.57,29.64,4.66,27.34,978.53,2037.59,2840.54,2890.78,3130.99,350.03,333.99,14.29,0000 0000 0000 0000 000000
2015-03-25 12:57:42,0.10,1.53,0.00,23.38,26.57,29.53,4.50,27.24,978.53,2037.24,2839.15,2889.68,3129.77,349.89,334.33,14.32,0000 0000 0000 0000 000000
2015-03-25 13:02:43,0.13,1.54,0.00,23.30,26.57,29.46,4.61,27.38,978.61,2037.21,2837.58,2888.58,3128.57,350.22,334.63,14.35,0000 0000 0000 0000 000000
2015-03-25 13:07:44,0.10,1.54,0.00,23.55,26.57,29.28,4.54,27.13,978.62,2037.10,2836.42,2887.65,3127.48,350.16,334.23,14.38,0000 0000 0000 0000 000000